Regional Weather Roundup
Issued by NWS

Home | Current Version | Previous Version | Graphics & Text | Print | Product List | Glossary On
Versions: 1 2 3 4 5 6 7 8 9 10 11 12 13 14 15 16 17 18 19 20 21 22 23 24 25 26 27 28 29 30 31 32 33 34 35 36 37 38 39 40 41 42 43 44 45 46 47 48 49 50
569
ASUS44 KMEG 201510
RWRTN
TENNESSEE HOURLY STATE WEATHER ROUNDUP
NATIONAL WEATHER SERVICE MEMPHIS TN
900 AM CST MON FEB 20 2017

TNZ002-004-019-021-049-052-054-088>092-201600-
WEST TENNESSEE

CITY           SKY/WX    TMP DP  RH WIND       PRES   REMARKS
MEMPHIS INTL   PTSUNNY   68  52  56 S10       30.09R
NWS MEMPHIS      N/A     64 N/A N/A MISG        N/A
JACKSON        CLOUDY    59  52  77 E3        30.13R
UNION CITY     SUNNY     59  57  94 CALM      30.11R
PARIS          SUNNY     55  48  76 SE8       30.14S
HUNTINGDON     SUNNY     57  52  82 SE7       30.12F
$$

TNZ008-025-027-028-033-062-065-066-201600-
NORTH MIDDLE TENNESSEE

CITY           SKY/WX    TMP DP  RH WIND       PRES   REMARKS
NASHVILLE      CLOUDY    56  50  80 CALM      30.18S
PORTLAND       SUNNY     57  52  82 SE6       30.18S
CLARKSVILLE    CLOUDY    54  49  83 SE5       30.16R
SMYRNA         PTSUNNY   55  50  83 SE5       30.19F
COOKEVILLE     SUNNY     59  50  72 SW3       30.19S
GALLATIN       SUNNY     54  50  87 E5        30.21S
CROSSVILLE     SUNNY     56  45  66 SE6       30.23S
$$

TNZ061-075-076-078-094-096-097-201600-
SOUTH MIDDLE TENNESSEE

CITY           SKY/WX    TMP DP  RH WIND       PRES   REMARKS
FAYETTEVILLE   SUNNY     59  52  77 SE5       30.18S
TULLAHOMA      SUNNY     55  48  76 CALM      30.19F
WINCHESTER     SUNNY     61  48  63 SE9       30.18F
MCMINNVILLE    SUNNY     57  52  82 CALM      30.19F
COLUMBIA       SUNNY    N/A N/A N/A CALM      30.15F
SHELBYVILLE    SUNNY     57  52  82 E5        30.19S
$$

TNZ017-018-042-046-047-201600-
NORTHEAST TENNESSEE

CITY           SKY/WX    TMP DP  RH WIND       PRES   REMARKS
TRI CITIES     MOSUNNY   47  42  83 SE3       30.26F
ELIZABETHTON   DRIZZLE   48  43  81 E5        30.25F
$$

TNZ012-013-036-069-073-074-201600-
CENTRAL EAST TENNESSEE

CITY           SKY/WX    TMP DP  RH WIND       PRES   REMARKS
KNOXVILLE      CLOUDY    51  44  77 CALM      30.23S
OAK RIDGE      CLOUDY    53  45  74 E7        30.25S
GATLINBURG     SUNNY     48  39  71 CALM      30.23F
MORRISTOWN     SUNNY     55  46  71 E5        30.23S
JACKSBORO      SUNNY     50  46  87 CALM      30.27F
$$

TNZ083-085-099-201600-
SOUTHEAST TENNESSEE

CITY           SKY/WX    TMP DP  RH WIND       PRES   REMARKS
CHATTANOOGA    PTSUNNY   52  47  83 CALM      30.24R
$$

SKY/WX REPORTED AS FAIR MEANS FEW OR NO CLOUDS BELOW
12 THOUSAND FEET.





USA.gov is the U.S. government's official web portal to all federal, state and local government web resources and services.